[[{"header":{"parameterUnit":"m.s-1","parameterCategory":1,"la1":30.2991,"la2":30.254,"lo1":-89.0895,"lo2":-89.0444,"dy":0.0017,"dx":0.0017,"nx":28,"ny":28,"refTime":"2024-07-16T21:00:00:Z","depth":0,"parameterNumber":2,"parameterNumberName":"U-component_of_WINDS"},"data":[0,0,0,0,0,0,0,0,0,0,0,0,0,0,0,0,0,0,0,0,0,0,0,0,0,0,0,0,0,0,0,0,0,0,0,0,0,0,0,0,0,0,0,0,0,0,0,0,0,0,0,0,0,0,0,0,0,0,2.2293,2.2294,0,2.2329,2.233,2.233,2.2302,2.2301,2.23,2.2299,2.2336,2.2338,2.234,0,0,0,0,0,0,0,0,0,0,0,0,0,2.2201,2.2203,2.2293,2.2294,2.2294,2.2329,2.233,2.233,2.2303,2.2301,2.23,2.2298,2.2335,2.2338,2.2341,0,0,0,0,0,0,0,0,0,0,0,0,0,2.224,2.2204,2.2293,2.2285,2.2284,2.2329,2.233,2.233,2.2303,2.2301,2.2299,2.2298,2.2335,2.2338,2.2341,2.2397,0,0,2.2351,2.2352,0,0,0,0,0,0,0,0,2.2237,2.2243,2.2285,2.2285,2.2285,2.231,2.2311,2.2353,2.2303,2.2296,2.2299,2.2297,2.2329,2.2332,2.2343,2.2398,2.24,2.2351,2.2353,2.2354,2.2355,0,0,0,0,0,0,0,2.2235,2.2241,2.2308,2.2286,2.2286,2.2279,2.2283,2.2319,2.2322,2.2296,2.2294,2.2299,2.2328,2.234,2.2344,2.24,2.2351,2.2354,2.2356,2.2357,2.2504,2.2506,0,0,0,0,0,0,2.2233,2.2239,2.2306,2.2309,2.2256,2.2282,2.2286,2.2303,2.2321,2.2323,2.2301,2.2298,2.2336,2.234,2.2345,2.2412,2.2354,2.2357,2.2359,2.2502,2.2505,2.2507,0,0,0,0,0,0,2.2231,2.2239,2.2305,2.2273,2.2281,2.2286,2.2305,2.2305,2.2317,2.2325,2.2325,2.2312,2.2334,2.2341,2.2384,2.2413,2.2359,2.2361,2.25,2.2503,2.2506,2.2547,0,0,0,0,0,0,2.2228,2.2239,2.226,2.2274,2.2283,2.2343,2.2307,2.2307,2.2322,2.2319,2.2336,2.2337,2.2333,2.238,2.2387,2.2417,2.2364,2.2497,2.2501,2.2505,2.2543,2.2551,2.2558,0,0,0,0,0,2.2225,2.2269,2.2261,2.2269,2.2309,2.2345,2.235,2.2346,2.2325,2.2346,2.2351,2.2336,2.2409,2.2384,2.2393,2.2423,2.2496,2.25,2.2505,2.254,2.2549,2.2558,0,0,0,0,0,0,2.2258,2.2271,2.2262,2.2312,2.2328,2.234,2.2367,2.2356,2.2378,2.2374,2.2367,2.2371,2.2417,2.2425,2.2397,2.2479,2.2449,2.2455,2.2473,2.2482,2.2489,2.2487,2.2367,0,0,0,0,0,2.2271,2.2299,2.2309,2.2352,2.2361,2.2363,2.2378,2.2373,2.2389,2.2396,2.2404,2.242,2.2447,2.2465,2.2489,2.2544,2.2548,2.2569,2.2576,2.2582,2.2588,2.2619,2.2629,2.2522,2.2522,2.2522,0,0,2.2298,2.2309,2.2327,2.2359,2.2371,2.24,2.2368,2.2401,2.2423,2.2401,2.2443,2.245,2.2467,2.2517,2.2539,2.2524,2.2619,2.2588,2.2593,2.2596,2.2624,2.2635,2.2644,2.2525,2.2525,2.2524,0,0,2.2364,2.2374,2.2412,2.2424,2.2442,2.2444,2.2453,2.2467,2.2471,2.2513,2.2498,2.2524,2.2569,2.2583,2.2596,2.2667,2.2654,2.2675,2.2714,2.2744,2.2752,2.276,2.2786,2.2796,2.2681,2.2681,2.2681,0,2.2395,2.2439,2.2433,2.2466,2.2481,2.2463,2.2502,2.2514,2.2539,2.255,2.2533,2.2591,2.2602,2.2655,2.2672,2.2683,2.2694,2.2674,2.2752,2.2759,2.2766,2.2791,2.2801,2.2684,2.2683,2.2683,2.2683,0,2.2477,2.2508,2.2536,2.2562,2.258,2.2616,2.2616,2.2635,2.2628,2.2632,2.2675,2.2687,2.2715,2.2727,2.2721,2.278,2.277,2.2752,2.2722,2.2779,2.2802,2.2812,2.2687,2.2686,2.2686,2.2685,0,0,2.2564,2.2586,2.2597,2.2609,2.2628,2.2651,2.2687,2.2714,2.2731,2.2749,2.2779,2.2818,2.2803,2.2817,2.2813,2.2839,2.2896,2.2818,2.2819,2.2833,2.2963,2.2976,2.2987,2.2887,2.2889,2.289,2.2961,0,2.2631,2.2693,2.2689,2.2747,2.2776,2.2759,2.279,2.2806,2.281,2.2835,2.2839,2.2868,2.2844,2.2853,2.2878,2.2884,2.2922,2.2878,2.2916,2.2917,2.2913,2.3,2.3014,2.3081,2.297,2.2972,2.2973,0,2.2717,2.2739,2.28,2.2816,2.2828,2.2856,2.2881,2.2905,2.2922,2.2923,2.294,2.2931,2.2968,2.2936,2.2987,2.2958,2.2973,2.2978,2.298,2.2984,2.2949,2.3007,2.3101,2.3112,2.2987,2.2986,2.2985,0,2.2776,2.282,2.2863,2.2874,2.2893,2.2913,2.2922,2.2937,2.2954,2.2976,2.2987,2.3012,2.3027,2.3047,2.3046,2.3023,2.3097,2.3065,2.31,2.31,2.3117,2.3116,2.3217,2.3125,2.3125,2.3125,2.3125,0,2.2851,2.289,2.289,2.2916,2.2959,2.2954,2.2997,2.3004,2.3018,2.3046,2.3032,2.3059,2.3055,2.3082,2.3081,2.3123,2.313,2.3132,2.3132,2.3134,2.3134,2.3144,2.314,2.3128,2.3127,2.3127,2.3126,0,2.2924,2.2926,2.2972,2.2986,2.2991,2.3022,2.3034,2.306,2.3062,2.3098,2.3106,2.3111,2.3142,2.3142,2.3177,2.3177,2.3229,2.3223,2.3223,2.3223,2.3257,2.3255,2.3369,2.3384,2.3282,2.3283,2.3284,0,2.2973,2.3002,2.302,2.3038,2.3048,2.3077,2.3094,2.309,2.3109,2.3131,2.3154,2.3184,2.3207,2.3257,2.3264,2.3291,2.3286,2.3324,2.329,2.3292,2.3288,2.3287,2.329,2.3331,2.3332,2.3333,2.3334,0,2.306,2.3059,2.3084,2.3111,2.3132,2.3152,2.317,2.3186,2.3184,2.3206,2.3237,2.3256,2.3292,2.3322,2.3348,2.3357,2.3346,2.3345,2.3354,2.3357,2.3357,2.3359,2.3243,2.3342,2.3341,2.3341,2.334,2.334,2.3123,2.3148,2.3165,2.3194,2.3208,2.3226,2.3251,2.3257,2.3283,2.3313,2.3309,2.3344,2.3361,2.3396,2.3407,2.3435,2.3422,2.3436,2.3439,2.3443,2.3447,2.3352,2.344,2.3439,2.3439,2.3439,2.3439,0,2.3209,2.322,2.3246,2.3273,2.3296,2.3283,2.3303,2.3324,2.3355,2.3372,2.3396,2.3432,2.3461,2.3471,2.3499,2.3519,2.3515,2.3527,2.3526,2.3529,2.3457,2.3446,2.353,2.353,2.353,2.353,2.353,2.353,2.3257,2.3301,2.3302,2.3352,2.3362,2.3397,2.341,2.3427,2.344,2.3482,2.3506,2.3512,2.3526,2.3555,2.3582,2.3584,2.3595,2.361,2.361,2.3543,2.3533,2.3525,2.3515,2.3612,2.3612,2.3679,2.368,2.368]},{"header":{"parameterUnit":"m.s-1","parameterCategory":1,"la1":30.2991,"la2":30.254,"lo1":-89.0895,"lo2":-89.0444,"dy":0.0017,"dx":0.0017,"nx":28,"ny":28,"refTime":"2024-07-16T21:00:00:Z","depth":0,"parameterNumber":3,"parameterNumberName":"V-component_of_WINDS"},"data":[0,0,0,0,0,0,0,0,0,0,0,0,0,0,0,0,0,0,0,0,0,0,0,0,0,0,0,0,0,0,0,0,0,0,0,0,0,0,0,0,0,0,0,0,0,0,0,0,0,0,0,0,0,0,0,0,0,0,0.9952,0.9952,0,0.9924,0.9923,0.9923,0.9911,0.9911,0.9911,0.9911,0.988,0.9879,0.9878,0,0,0,0,0,0,0,0,0,0,0,0,0,0.9995,0.9994,0.9952,0.9952,0.9952,0.9924,0.9923,0.9923,0.9911,0.9911,0.9911,0.9911,0.988,0.9879,0.9878,0,0,0,0,0,0,0,0,0,0,0,0,0,0.9972,0.9994,0.9952,0.9942,0.9941,0.9924,0.9923,0.9923,0.9911,0.9911,0.9911,0.9911,0.9881,0.9879,0.9878,0.9868,0,0,0.9874,0.9873,0,0,0,0,0,0,0,0,0.9973,0.997,0.9944,0.9943,0.9942,0.9921,0.9927,0.9904,0.9911,0.9922,0.9911,0.9911,0.9893,0.9891,0.9885,0.9867,0.9865,0.9874,0.9873,0.9873,0.9872,0,0,0,0,0,0,0,0.9975,0.9972,0.9941,0.9944,0.9942,0.9938,0.9935,0.9922,0.9908,0.9921,0.992,0.9917,0.9893,0.9887,0.9885,0.9865,0.9874,0.9873,0.9872,0.9871,0.9834,0.9834,0,0,0,0,0,0,0.9978,0.9973,0.9942,0.994,0.9958,0.9938,0.9934,0.9927,0.9908,0.9905,0.9917,0.9917,0.9889,0.9886,0.9883,0.9869,0.9873,0.9871,0.9871,0.9835,0.9834,0.9834,0,0,0,0,0,0,0.9979,0.9976,0.9943,0.9956,0.9952,0.9937,0.9929,0.9927,0.9921,0.9905,0.9902,0.9914,0.9889,0.9885,0.9872,0.9868,0.9871,0.987,0.9835,0.9835,0.9834,0.9842,0,0,0,0,0,0,0.9981,0.9976,0.9973,0.9956,0.9951,0.9933,0.9929,0.9926,0.9919,0.9918,0.9901,0.9898,0.9889,0.9874,0.987,0.9866,0.9868,0.9835,0.9835,0.9834,0.9842,0.9842,0.9842,0,0,0,0,0,0.9982,0.9976,0.9973,0.9969,0.9947,0.9932,0.9929,0.9919,0.9919,0.9915,0.9904,0.9899,0.9869,0.9872,0.9869,0.9864,0.9835,0.9835,0.9834,0.9842,0.9842,0.9842,0,0,0,0,0,0,0.9993,0.9974,0.997,0.9959,0.9947,0.993,0.9925,0.992,0.9908,0.9908,0.9895,0.9891,0.9878,0.987,0.9874,0.9853,0.9852,0.985,0.9859,0.9859,0.9859,0.9861,0.9867,0,0,0,0,0,0.9994,0.9984,0.9968,0.9959,0.9954,0.9941,0.9934,0.9927,0.9914,0.9909,0.9898,0.9885,0.9873,0.9865,0.9853,0.9841,0.9836,0.9835,0.9835,0.9836,0.9835,0.9826,0.9825,0.9833,0.9833,0.9833,0,0,0.9996,0.9984,0.9979,0.9961,0.9952,0.9941,0.9937,0.9926,0.9918,0.9908,0.9894,0.9885,0.987,0.9856,0.985,0.9849,0.9831,0.9835,0.9835,0.9834,0.9825,0.9825,0.9824,0.9833,0.9833,0.9833,0,0,0.9994,0.9985,0.9976,0.9966,0.9952,0.9943,0.994,0.9924,0.9918,0.9904,0.9896,0.9885,0.9865,0.9854,0.9846,0.9838,0.9833,0.9835,0.9835,0.9826,0.9826,0.9825,0.9822,0.9821,0.9834,0.9834,0.9834,0,0.9998,0.9983,0.9972,0.9962,0.9954,0.9944,0.9934,0.9925,0.9907,0.9901,0.9901,0.9874,0.9863,0.9846,0.9844,0.9839,0.9835,0.9837,0.9827,0.9826,0.9825,0.9822,0.9821,0.9834,0.9834,0.9834,0.9834,0,0.9988,0.9977,0.9972,0.9955,0.9946,0.9936,0.9923,0.9915,0.9909,0.9899,0.9884,0.9871,0.9856,0.9851,0.9845,0.9833,0.9832,0.983,0.9828,0.9825,0.9821,0.982,0.9835,0.9835,0.9835,0.9834,0,0,0.9993,0.9969,0.9967,0.9959,0.9942,0.9933,0.9922,0.9907,0.99,0.9887,0.9877,0.9859,0.9856,0.9847,0.9839,0.9831,0.9825,0.9829,0.9828,0.9828,0.9809,0.9811,0.981,0.9821,0.982,0.982,0.981,0,0.9988,0.9969,0.9958,0.9943,0.9932,0.9922,0.9912,0.99,0.989,0.9879,0.9868,0.9855,0.9853,0.9847,0.9839,0.9827,0.9821,0.9828,0.981,0.9809,0.9814,0.9808,0.9811,0.9802,0.9809,0.9809,0.9808,0,0.9981,0.9968,0.9952,0.9934,0.9929,0.9921,0.9905,0.9895,0.988,0.9874,0.9863,0.9855,0.9841,0.9841,0.9822,0.9827,0.9818,0.9811,0.9811,0.9809,0.9809,0.9805,0.98,0.9798,0.9806,0.9806,0.9807,0,0.9985,0.9964,0.9951,0.9944,0.9924,0.9918,0.9909,0.9894,0.9885,0.9872,0.9865,0.985,0.9842,0.983,0.9817,0.9818,0.9798,0.9797,0.9792,0.9792,0.9788,0.9789,0.9781,0.9784,0.9784,0.9784,0.9784,0,0.9981,0.9971,0.9953,0.9945,0.9933,0.992,0.9908,0.9899,0.9885,0.9874,0.9864,0.9854,0.9838,0.9826,0.9816,0.9801,0.9797,0.9791,0.9788,0.9791,0.9792,0.9786,0.9786,0.9783,0.9783,0.9784,0.9784,0,0.9984,0.9971,0.9956,0.9938,0.9933,0.9925,0.9908,0.99,0.9889,0.9876,0.9872,0.9855,0.984,0.9826,0.9805,0.9798,0.9783,0.978,0.9788,0.9786,0.9781,0.9782,0.9769,0.9766,0.9771,0.9771,0.9771,0,0.9982,0.9974,0.9954,0.9946,0.9938,0.9925,0.9916,0.9903,0.9893,0.9875,0.9868,0.9852,0.9838,0.9814,0.9799,0.9783,0.9779,0.9776,0.9777,0.978,0.9778,0.9779,0.9778,0.9776,0.9776,0.9776,0.9776,0,0.9979,0.9973,0.9961,0.9946,0.9935,0.9922,0.9909,0.9903,0.9887,0.9877,0.9861,0.9851,0.9829,0.9813,0.9795,0.9785,0.9777,0.9776,0.9773,0.9777,0.9781,0.9778,0.9787,0.9776,0.9776,0.9776,0.9776,0.9776,0.9979,0.9971,0.9956,0.9942,0.9931,0.9918,0.9909,0.9897,0.9884,0.9866,0.9859,0.9842,0.9826,0.9801,0.979,0.9776,0.9775,0.9772,0.9771,0.977,0.9771,0.9784,0.9773,0.9773,0.9773,0.9773,0.9773,0,0.9976,0.9965,0.9952,0.9934,0.9923,0.9917,0.9902,0.9893,0.9879,0.9864,0.9851,0.9832,0.9816,0.9799,0.9782,0.9774,0.977,0.977,0.977,0.9767,0.9773,0.9777,0.9773,0.9773,0.9773,0.9773,0.9773,0.9773,0.9972,0.9958,0.995,0.993,0.9919,0.9903,0.9895,0.9883,0.9871,0.9851,0.9837,0.9827,0.9811,0.9792,0.9777,0.9772,0.9766,0.9767,0.9761,0.9767,0.9767,0.9767,0.977,0.9765,0.9765,0.9756,0.9756,0.9756]}]]